Time,TemperatureF,DewpointF,PressureIn,WindDirection,WindDirectionDegrees,WindSpeedMPH,WindSpeedGustMPH,Humidity,HourlyPrecipIn,Conditions,Clouds,dailyrainin,SoftwareType,DateUTC
2013-02-26 00:00:00,28.8,21.2,29.78,SW,225,3.6,4.6,73,0.00,CLR,,0.00,WeatherDisplay:10.37,2013-02-26 07:00:00,
2013-02-26 00:05:00,28.6,21.0,29.78,NNW,338,0.3,1.1,73,0.00,CLR,,0.00,WeatherDisplay:10.37,2013-02-26 07:05:00,
2013-02-26 00:10:00,28.4,20.8,29.78,South,180,2.2,2.3,73,0.00,CLR,,0.00,WeatherDisplay:10.37,2013-02-26 07:10:00,
2013-02-26 00:15:00,28.2,21.0,29.78,West,270,0.9,1.1,74,0.00,CLR,,0.00,WeatherDisplay:10.37,2013-02-26 07:15:00,
2013-02-26 00:20:00,27.9,21.0,29.78,SE,135,2.0,2.0,75,0.00,CLR,,0.00,WeatherDisplay:10.37,2013-02-26 07:20:00,
2013-02-26 00:26:00,27.7,20.8,29.78,WSW,248,3.3,3.5,75,0.00,CLR,,0.00,WeatherDisplay:10.37,2013-02-26 07:26:00,
2013-02-26 00:31:00,27.9,21.0,29.78,SSE,158,2.9,3.7,75,0.00,CLR,,0.00,WeatherDisplay:10.37,2013-02-26 07:31:00,
2013-02-26 00:36:00,27.9,21.0,29.78,SSE,158,1.9,2.3,75,0.00,CLR,,0.00,WeatherDisplay:10.37,2013-02-26 07:36:00,
2013-02-26 00:41:00,27.5,20.9,29.78,NNW,338,0.8,2.3,76,0.00,CLR,,0.00,WeatherDisplay:10.37,2013-02-26 07:41:00,
2013-02-26 00:46:00,27.1,20.5,29.78,SW,225,2.5,3.5,76,0.00,CLR,,0.00,WeatherDisplay:10.37,2013-02-26 07:46:00,
2013-02-26 00:51:00,27.5,20.6,29.78,SSW,202,2.2,2.3,75,0.00,CLR,,0.00,WeatherDisplay:10.37,2013-02-26 07:51:00,
2013-02-26 00:56:00,27.1,20.2,29.78,WSW,248,2.3,2.3,75,0.00,CLR,,0.00,WeatherDisplay:10.37,2013-02-26 07:56:00,
2013-02-26 01:01:00,27.1,20.2,29.78,WSW,248,0.8,2.3,75,0.00,CLR,,0.00,WeatherDisplay:10.37,2013-02-26 08:01:00,
2013-02-26 01:06:00,26.6,20.1,29.78,WSW,248,1.1,2.3,76,0.00,CLR,,0.00,WeatherDisplay:10.37,2013-02-26 08:06:00,
2013-02-26 01:11:00,26.8,20.2,29.78,ESE,112,1.3,2.3,76,0.00,CLR,,0.00,WeatherDisplay:10.37,2013-02-26 08:11:00,
2013-02-26 01:16:00,26.6,20.4,29.78,SW,225,0.1,1.1,77,0.00,CLR,,0.00,WeatherDisplay:10.37,2013-02-26 08:16:00,
2013-02-26 01:21:00,26.8,20.6,29.78,SE,135,0.1,1.1,77,0.00,CLR,,0.00,WeatherDisplay:10.37,2013-02-26 08:21:00,
2013-02-26 01:26:00,26.8,20.6,29.78,ESE,112,3.2,3.2,77,0.00,CLR,,0.00,WeatherDisplay:10.37,2013-02-26 08:26:00,
2013-02-26 01:31:00,26.6,20.4,29.78,South,180,1.3,1.7,77,0.00,CLR,,0.00,WeatherDisplay:10.37,2013-02-26 08:31:00,
2013-02-26 01:36:00,26.4,20.5,29.78,SW,225,0.5,1.1,78,0.00,CLR,,0.00,WeatherDisplay:10.37,2013-02-26 08:36:00,
2013-02-26 01:41:00,26.1,20.2,29.78,WSW,248,0.0,1.1,78,0.00,CLR,,0.00,WeatherDisplay:10.37,2013-02-26 08:41:00,
2013-02-26 01:46:00,25.9,20.3,29.78,SSE,158,0.3,1.1,79,0.00,CLR,,0.00,WeatherDisplay:10.37,2013-02-26 08:46:00,
2013-02-26 01:51:00,25.7,20.4,29.78,NNW,338,1.8,2.3,80,0.00,CLR,,0.00,WeatherDisplay:10.37,2013-02-26 08:51:00,
2013-02-26 01:56:00,25.3,20.0,29.78,ESE,112,0.0,0.0,80,0.00,CLR,,0.00,WeatherDisplay:10.37,2013-02-26 08:56:00,
2013-02-26 02:01:00,25.0,20.3,29.78,NNE,22,1.1,1.1,82,0.00,CLR,,0.00,WeatherDisplay:10.37,2013-02-26 09:01:00,
2013-02-26 02:06:00,24.8,20.1,29.78,NE,45,1.1,1.1,82,0.00,CLR,,0.00,WeatherDisplay:10.37,2013-02-26 09:06:00,
2013-02-26 02:11:00,24.4,19.7,29.78,NW,315,0.7,1.7,82,0.00,CLR,,0.00,WeatherDisplay:10.37,2013-02-26 09:11:00,
2013-02-26 02:16:00,24.6,20.2,29.78,NW,315,1.7,2.3,83,0.00,CLR,,0.00,WeatherDisplay:10.37,2013-02-26 09:16:00,
2013-02-26 02:21:00,24.4,19.7,29.78,ESE,112,0.6,1.1,82,0.00,CLR,,0.00,WeatherDisplay:10.37,2013-02-26 09:21:00,
2013-02-26 02:26:00,24.1,19.7,29.78,WSW,248,0.3,1.1,83,0.00,CLR,,0.00,WeatherDisplay:10.37,2013-02-26 09:26:00,
2013-02-26 02:31:00,24.3,19.9,29.78,WSW,248,1.1,1.1,83,0.00,CLR,,0.00,WeatherDisplay:10.37,2013-02-26 09:31:00,
2013-02-26 02:36:00,24.3,19.9,29.78,WSW,248,0.0,0.0,83,0.00,CLR,,0.00,WeatherDisplay:10.37,2013-02-26 09:36:00,
2013-02-26 02:41:00,23.9,19.5,29.78,WSW,248,0.0,0.0,83,0.00,CLR,,0.00,WeatherDisplay:10.37,2013-02-26 09:41:00,
2013-02-26 02:46:00,23.7,19.6,29.78,WSW,248,0.0,0.0,84,0.00,CLR,,0.00,WeatherDisplay:10.37,2013-02-26 09:46:00,
2013-02-26 02:51:00,23.2,19.6,29.78,SE,135,0.0,0.0,86,0.00,CLR,,0.00,WeatherDisplay:10.37,2013-02-26 09:51:00,
2013-02-26 02:56:00,23.2,19.6,29.78,South,180,0.0,0.0,86,0.00,CLR,,0.00,WeatherDisplay:10.37,2013-02-26 09:56:00,
2013-02-26 03:01:00,23.0,19.4,29.78,SE,135,0.0,0.0,86,0.00,CLR,,0.00,WeatherDisplay:10.37,2013-02-26 10:01:00,
2013-02-26 03:06:00,22.5,19.2,29.78,NE,45,0.0,0.0,87,0.00,CLR,,0.00,WeatherDisplay:10.37,2013-02-26 10:06:00,
2013-02-26 03:11:00,22.5,19.2,29.78,SE,135,0.0,0.0,87,0.00,CLR,,0.00,WeatherDisplay:10.37,2013-02-26 10:11:00,
2013-02-26 03:16:00,22.1,18.8,29.78,SE,135,0.0,0.0,87,0.00,CLR,,0.00,WeatherDisplay:10.37,2013-02-26 10:16:00,
2013-02-26 03:21:00,21.7,18.4,29.78,WSW,248,0.0,0.0,87,0.00,CLR,,0.00,WeatherDisplay:10.37,2013-02-26 10:21:00,
2013-02-26 03:26:00,21.9,19.2,29.78,WSW,248,0.0,0.0,89,0.00,CLR,,0.00,WeatherDisplay:10.37,2013-02-26 10:26:00,
2013-02-26 03:31:00,21.4,18.4,29.78,East,90,0.0,0.0,88,0.00,CLR,,0.00,WeatherDisplay:10.37,2013-02-26 10:31:00,
2013-02-26 03:36:00,21.4,18.9,29.78,ESE,112,0.0,0.0,90,0.00,CLR,,0.00,WeatherDisplay:10.37,2013-02-26 10:36:00,
2013-02-26 03:41:00,21.6,19.1,29.78,ESE,112,0.4,1.1,90,0.00,CLR,,0.00,WeatherDisplay:10.37,2013-02-26 10:41:00,
2013-02-26 03:46:00,21.2,18.7,29.78,East,90,1.3,1.3,90,0.00,CLR,,0.00,WeatherDisplay:10.37,2013-02-26 10:46:00,
2013-02-26 03:51:00,21.2,19.0,29.79,NW,315,0.0,0.0,91,0.00,CLR,,0.00,WeatherDisplay:10.37,2013-02-26 10:51:00,
2013-02-26 03:56:00,21.0,18.8,29.79,ESE,112,0.0,0.0,91,0.00,CLR,,0.00,WeatherDisplay:10.37,2013-02-26 10:56:00,
2013-02-26 04:01:00,21.0,18.8,29.79,ENE,68,0.0,0.0,91,0.00,CLR,,0.00,WeatherDisplay:10.37,2013-02-26 11:01:00,
2013-02-26 04:06:00,21.0,18.8,29.78,ENE,68,0.0,0.0,91,0.00,CLR,,0.00,WeatherDisplay:10.37,2013-02-26 11:06:00,
2013-02-26 04:11:00,21.0,18.8,29.78,WSW,248,0.0,0.0,91,0.00,CLR,,0.00,WeatherDisplay:10.37,2013-02-26 11:11:00,
2013-02-26 04:16:00,21.0,18.8,29.78,SW,225,0.0,0.0,91,0.00,CLR,,0.00,WeatherDisplay:10.37,2013-02-26 11:16:00,
2013-02-26 04:21:00,20.8,18.6,29.78,WSW,248,1.2,1.7,91,0.00,CLR,,0.00,WeatherDisplay:10.37,2013-02-26 11:21:00,
2013-02-26 04:26:00,20.5,18.3,29.78,West,270,0.0,0.0,91,0.00,CLR,,0.00,WeatherDisplay:10.37,2013-02-26 11:26:00,
2013-02-26 04:31:00,20.8,18.6,29.79,West,270,0.0,0.0,91,0.00,CLR,,0.00,WeatherDisplay:10.37,2013-02-26 11:31:00,
2013-02-26 04:36:00,20.7,18.5,29.79,West,270,2.3,2.3,91,0.00,CLR,,0.00,WeatherDisplay:10.37,2013-02-26 11:36:00,
2013-02-26 04:41:00,20.3,18.1,29.79,South,180,0.2,1.1,91,0.00,CLR,,0.00,WeatherDisplay:10.37,2013-02-26 11:41:00,
2013-02-26 04:46:00,20.3,18.1,29.79,SSW,202,1.4,1.7,91,0.00,CLR,,0.00,WeatherDisplay:10.37,2013-02-26 11:46:00,
2013-02-26 04:51:00,20.5,18.3,29.80,WSW,248,2.7,3.5,91,0.00,CLR,,0.00,WeatherDisplay:10.37,2013-02-26 11:51:00,
2013-02-26 04:56:00,20.8,18.3,29.80,WSW,248,2.3,2.3,90,0.00,CLR,,0.00,WeatherDisplay:10.37,2013-02-26 11:56:00,
2013-02-26 05:01:00,20.8,18.3,29.80,WSW,248,0.0,0.0,90,0.00,CLR,,0.00,WeatherDisplay:10.37,2013-02-26 12:01:00,
2013-02-26 05:06:00,20.7,18.2,29.80,WSW,248,2.9,3.5,90,0.00,CLR,,0.00,WeatherDisplay:10.37,2013-02-26 12:06:00,
2013-02-26 05:11:00,20.5,18.0,29.80,SE,135,0.0,1.1,90,0.00,CLR,,0.00,WeatherDisplay:10.37,2013-02-26 12:11:00,
2013-02-26 05:16:00,20.3,17.8,29.80,WSW,248,0.0,0.0,90,0.00,CLR,,0.00,WeatherDisplay:10.37,2013-02-26 12:16:00,
2013-02-26 05:21:00,20.1,17.9,29.80,WSW,248,0.0,2.2,91,0.00,CLR,,0.00,WeatherDisplay:10.37,2013-02-26 12:21:00,
2013-02-26 05:26:00,19.9,17.4,29.81,SW,225,1.9,2.3,90,0.00,CLR,,0.00,WeatherDisplay:10.37,2013-02-26 12:26:00,
2013-02-26 05:31:00,20.1,17.6,29.81,WSW,248,2.1,2.3,90,0.00,CLR,,0.00,WeatherDisplay:10.37,2013-02-26 12:31:00,
2013-02-26 05:36:00,20.1,17.6,29.81,SSW,202,1.8,2.3,90,0.00,CLR,,0.00,WeatherDisplay:10.37,2013-02-26 12:36:00,
2013-02-26 05:41:00,20.1,17.4,29.81,WSW,248,1.9,2.3,89,0.00,CLR,,0.00,WeatherDisplay:10.37,2013-02-26 12:41:00,
2013-02-26 05:46:00,19.9,17.2,29.81,SW,225,2.0,2.3,89,0.00,CLR,,0.00,WeatherDisplay:10.37,2013-02-26 12:46:00,
2013-02-26 05:51:00,19.8,17.1,29.81,SE,135,1.5,2.3,89,0.00,CLR,,0.00,WeatherDisplay:10.37,2013-02-26 12:51:00,
2013-02-26 05:56:00,19.8,17.3,29.81,ENE,68,0.0,0.0,90,0.00,CLR,,0.00,WeatherDisplay:10.37,2013-02-26 12:56:00,
2013-02-26 06:01:00,19.8,17.3,29.81,WSW,248,1.7,1.7,90,0.00,CLR,,0.00,WeatherDisplay:10.37,2013-02-26 13:01:00,
2013-02-26 06:06:00,19.8,17.3,29.81,WSW,248,2.2,2.3,90,0.00,CLR,,0.00,WeatherDisplay:10.37,2013-02-26 13:06:00,
2013-02-26 06:11:00,19.8,17.3,29.81,SW,225,2.0,2.3,90,0.00,CLR,,0.00,WeatherDisplay:10.37,2013-02-26 13:11:00,
2013-02-26 06:16:00,19.8,17.3,29.82,SW,225,2.5,2.5,90,0.00,CLR,,0.00,WeatherDisplay:10.37,2013-02-26 13:16:00,
2013-02-26 06:21:00,19.8,17.1,29.82,WSW,248,3.6,3.7,89,0.00,CLR,,0.00,WeatherDisplay:10.37,2013-02-26 13:21:00,
2013-02-26 06:26:00,19.8,17.1,29.82,SW,225,3.0,3.5,89,0.00,CLR,,0.00,WeatherDisplay:10.37,2013-02-26 13:26:00,
2013-02-26 06:31:00,19.8,17.1,29.82,SW,225,0.7,2.3,89,0.00,CLR,,0.00,WeatherDisplay:10.37,2013-02-26 13:31:00,
2013-02-26 06:36:00,19.6,16.9,29.82,SE,135,0.0,0.0,89,0.00,CLR,,0.00,WeatherDisplay:10.37,2013-02-26 13:36:00,
2013-02-26 06:41:00,19.4,16.7,29.83,West,270,1.5,1.7,89,0.00,CLR,,0.00,WeatherDisplay:10.37,2013-02-26 13:41:00,
2013-02-26 06:46:00,19.4,16.7,29.83,SW,225,1.3,1.7,89,0.00,CLR,,0.00,WeatherDisplay:10.37,2013-02-26 13:46:00,
2013-02-26 06:51:00,19.8,17.1,29.83,WNW,292,0.0,1.1,89,0.00,CLR,,0.00,WeatherDisplay:10.37,2013-02-26 13:51:00,
2013-02-26 06:56:00,19.9,17.2,29.83,SW,225,2.2,2.7,89,0.00,CLR,,0.00,WeatherDisplay:10.37,2013-02-26 13:56:00,
2013-02-26 07:01:00,20.1,17.1,29.83,SW,225,2.7,2.7,88,0.00,CLR,,0.00,WeatherDisplay:10.37,2013-02-26 14:01:00,
2013-02-26 07:06:00,20.3,17.6,29.83,SSE,158,0.0,0.0,89,0.00,CLR,,0.00,WeatherDisplay:10.37,2013-02-26 14:06:00,
2013-02-26 07:11:00,20.8,17.5,29.83,SW,225,2.2,2.3,87,0.00,CLR,,0.00,WeatherDisplay:10.37,2013-02-26 14:11:00,
2013-02-26 07:16:00,21.4,17.9,29.83,SW,225,2.2,2.7,86,0.00,CLR,,0.00,WeatherDisplay:10.37,2013-02-26 14:16:00,
2013-02-26 07:21:00,22.1,18.0,29.83,WSW,248,2.9,3.5,84,0.00,CLR,,0.00,WeatherDisplay:10.37,2013-02-26 14:21:00,
2013-02-26 07:26:00,22.5,18.1,29.83,SW,225,2.8,3.5,83,0.00,CLR,,0.00,WeatherDisplay:10.37,2013-02-26 14:26:00,
2013-02-26 07:31:00,23.2,19.1,29.83,SW,225,2.1,2.3,84,0.00,CLR,,0.00,WeatherDisplay:10.37,2013-02-26 14:31:00,
2013-02-26 07:36:00,23.5,19.1,29.83,SW,225,3.4,3.7,83,0.00,CLR,,0.00,WeatherDisplay:10.37,2013-02-26 14:36:00,
2013-02-26 07:41:00,24.3,19.6,29.84,SW,225,3.6,3.7,82,0.00,CLR,,0.00,WeatherDisplay:10.37,2013-02-26 14:41:00,
2013-02-26 07:46:00,24.8,19.8,29.84,SW,225,4.6,4.6,81,0.00,CLR,,0.00,WeatherDisplay:10.37,2013-02-26 14:46:00,
2013-02-26 07:51:00,25.5,20.5,29.84,SW,225,4.0,4.6,81,0.00,CLR,,0.00,WeatherDisplay:10.37,2013-02-26 14:51:00,
2013-02-26 07:57:00,26.2,20.6,29.84,WSW,248,3.5,4.6,79,0.00,CLR,,0.00,WeatherDisplay:10.37,2013-02-26 14:57:00,
2013-02-26 08:01:00,27.1,21.5,29.84,WSW,248,3.3,3.7,79,0.00,CLR,,0.00,WeatherDisplay:10.37,2013-02-26 15:01:00,
2013-02-26 08:07:00,27.9,21.9,29.84,WSW,248,4.5,4.6,78,0.00,CLR,,0.00,WeatherDisplay:10.37,2013-02-26 15:07:00,
2013-02-26 08:12:00,28.2,21.9,29.84,SW,225,5.9,5.9,77,0.00,CLR,,0.00,WeatherDisplay:10.37,2013-02-26 15:12:00,
2013-02-26 08:17:00,28.6,22.3,29.85,WSW,248,5.7,6.9,77,0.00,CLR,,0.00,WeatherDisplay:10.37,2013-02-26 15:17:00,
2013-02-26 08:22:00,29.3,22.7,29.85,SW,225,4.7,4.7,76,0.00,CLR,,0.00,WeatherDisplay:10.37,2013-02-26 15:22:00,
2013-02-26 08:27:00,29.8,23.2,29.85,SSW,202,4.2,5.8,76,0.00,CLR,,0.00,WeatherDisplay:10.37,2013-02-26 15:27:00,
2013-02-26 08:32:00,30.0,23.7,29.85,SW,225,3.4,4.6,77,0.00,CLR,,0.00,WeatherDisplay:10.37,2013-02-26 15:32:00,
2013-02-26 08:37:00,30.7,24.0,29.85,West,270,4.2,4.2,76,0.00,CLR,,0.00,WeatherDisplay:10.37,2013-02-26 15:37:00,
2013-02-26 08:42:00,31.3,24.3,29.85,West,270,4.4,4.7,75,0.00,CLR,,0.00,WeatherDisplay:10.37,2013-02-26 15:42:00,
2013-02-26 08:47:00,31.3,24.3,29.85,WSW,248,4.9,6.3,75,0.00,CLR,,0.00,WeatherDisplay:10.37,2013-02-26 15:47:00,
2013-02-26 08:52:00,32.4,25.4,29.85,WSW,248,3.9,4.6,75,0.00,CLR,,0.00,WeatherDisplay:10.37,2013-02-26 15:52:00,
2013-02-26 08:57:00,33.8,26.1,29.85,WNW,292,3.3,4.6,73,0.00,CLR,,0.00,WeatherDisplay:10.37,2013-02-26 15:57:00,
2013-02-26 09:02:00,34.7,26.6,29.85,WSW,248,7.2,7.2,72,0.00,CLR,,0.00,WeatherDisplay:10.37,2013-02-26 16:02:00,
2013-02-26 09:07:00,36.1,27.3,29.85,West,270,5.4,6.9,70,0.00,CLR,,0.00,WeatherDisplay:10.37,2013-02-26 16:07:00,
2013-02-26 09:12:00,36.9,27.0,29.85,West,270,7.7,9.2,67,0.00,CLR,,0.00,WeatherDisplay:10.37,2013-02-26 16:12:00,
2013-02-26 09:17:00,36.9,26.6,29.85,West,270,10.5,11.5,66,0.00,CLR,,0.00,WeatherDisplay:10.37,2013-02-26 16:17:00,
2013-02-26 09:22:00,37.0,26.7,29.85,WNW,292,6.9,6.9,66,0.00,CLR,,0.00,WeatherDisplay:10.37,2013-02-26 16:22:00,
2013-02-26 09:27:00,37.4,26.7,29.85,SW,225,7.3,10.4,65,0.00,CLR,,0.00,WeatherDisplay:10.37,2013-02-26 16:27:00,
2013-02-26 09:32:00,37.8,27.1,29.85,West,270,4.2,6.9,65,0.00,CLR,,0.00,WeatherDisplay:10.37,2013-02-26 16:32:00,
2013-02-26 09:37:00,38.1,27.4,29.85,WNW,292,9.2,9.4,65,0.00,CLR,,0.00,WeatherDisplay:10.37,2013-02-26 16:37:00,
2013-02-26 09:42:00,38.3,27.6,29.85,NW,315,7.6,10.4,65,0.00,CLR,,0.00,WeatherDisplay:10.37,2013-02-26 16:42:00,
2013-02-26 09:47:00,39.4,28.2,29.85,NNW,338,5.1,7.3,64,0.00,CLR,,0.00,WeatherDisplay:10.37,2013-02-26 16:47:00,
2013-02-26 09:52:00,39.7,28.1,29.85,West,270,6.0,10.4,63,0.00,CLR,,0.00,WeatherDisplay:10.37,2013-02-26 16:52:00,
2013-02-26 09:57:00,40.1,28.1,29.85,West,270,7.2,9.2,62,0.00,CLR,,0.00,WeatherDisplay:10.37,2013-02-26 16:57:00,
2013-02-26 10:02:00,40.8,28.4,29.85,West,270,7.1,7.8,61,0.00,CLR,,0.00,WeatherDisplay:10.37,2013-02-26 17:02:00,
2013-02-26 10:07:00,41.2,28.4,29.85,SW,225,7.6,12.4,60,0.00,CLR,,0.00,WeatherDisplay:10.37,2013-02-26 17:07:00,
2013-02-26 10:12:00,40.6,27.4,29.85,West,270,11.4,11.5,59,0.00,CLR,,0.00,WeatherDisplay:10.37,2013-02-26 17:12:00,
2013-02-26 10:17:00,40.8,27.2,29.86,West,270,11.7,12.7,58,0.00,CLR,,0.00,WeatherDisplay:10.37,2013-02-26 17:17:00,
2013-02-26 10:22:00,40.6,27.0,29.86,NNW,338,8.3,11.5,58,0.00,CLR,,0.00,WeatherDisplay:10.37,2013-02-26 17:22:00,
2013-02-26 10:27:00,41.2,27.9,29.86,NW,315,7.4,10.4,59,0.00,CLR,,0.00,WeatherDisplay:10.37,2013-02-26 17:27:00,
2013-02-26 10:32:00,40.6,27.4,29.86,WSW,248,8.0,15.0,59,0.00,CLR,,0.00,WeatherDisplay:10.37,2013-02-26 17:32:00,
2013-02-26 10:37:00,40.3,27.1,29.86,NNW,338,13.0,16.1,59,0.00,CLR,,0.00,WeatherDisplay:10.37,2013-02-26 17:37:00,
2013-02-26 10:42:00,41.2,27.9,29.86,West,270,7.0,9.4,59,0.00,CLR,,0.00,WeatherDisplay:10.37,2013-02-26 17:42:00,
2013-02-26 10:47:00,41.2,27.9,29.86,NW,315,10.9,10.9,59,0.00,CLR,,0.00,WeatherDisplay:10.37,2013-02-26 17:47:00,
2013-02-26 10:52:00,41.5,27.8,29.86,West,270,6.0,6.9,58,0.00,CLR,,0.00,WeatherDisplay:10.37,2013-02-26 17:52:00,
2013-02-26 10:57:00,41.5,27.8,29.86,WSW,248,5.2,9.4,58,0.00,CLR,,0.00,WeatherDisplay:10.37,2013-02-26 17:57:00,
2013-02-26 11:02:00,42.3,28.1,29.87,West,270,8.3,10.4,57,0.00,CLR,,0.00,WeatherDisplay:10.37,2013-02-26 18:02:00,
2013-02-26 11:07:00,42.1,28.4,29.87,West,270,6.6,8.1,58,0.00,CLR,,0.00,WeatherDisplay:10.37,2013-02-26 18:07:00,
2013-02-26 11:12:00,41.5,27.4,29.87,West,270,6.6,9.2,57,0.00,CLR,,0.00,WeatherDisplay:10.37,2013-02-26 18:12:00,
2013-02-26 11:17:00,41.9,27.8,29.87,West,270,8.9,10.4,57,0.00,CLR,,0.00,WeatherDisplay:10.37,2013-02-26 18:17:00,
2013-02-26 11:22:00,41.9,27.8,29.87,West,270,8.8,9.2,57,0.00,CLR,,0.00,WeatherDisplay:10.37,2013-02-26 18:22:00,
2013-02-26 11:27:00,42.8,28.2,29.88,NW,315,8.0,10.4,56,0.00,CLR,,0.00,WeatherDisplay:10.37,2013-02-26 18:27:00,
2013-02-26 11:32:00,42.6,28.0,29.88,NNW,338,9.7,11.5,56,0.00,CLR,,0.00,WeatherDisplay:10.37,2013-02-26 18:32:00,
2013-02-26 11:37:00,42.1,27.9,29.88,West,270,11.6,13.8,57,0.00,CLR,,0.00,WeatherDisplay:10.37,2013-02-26 18:37:00,
2013-02-26 11:42:00,41.7,28.0,29.88,NNE,22,6.5,8.3,58,0.00,CLR,,0.00,WeatherDisplay:10.37,2013-02-26 18:42:00,
2013-02-26 11:47:00,41.4,28.1,29.88,WNW,292,5.8,9.2,59,0.00,CLR,,0.00,WeatherDisplay:10.37,2013-02-26 18:47:00,
2013-02-26 11:52:00,41.4,28.1,29.88,West,270,10.4,16.1,59,0.00,CLR,,0.00,WeatherDisplay:10.37,2013-02-26 18:52:00,
2013-02-26 11:57:00,41.4,28.1,29.88,WNW,292,10.7,13.8,59,0.00,CLR,,0.00,WeatherDisplay:10.37,2013-02-26 18:57:00,
2013-02-26 12:02:00,41.4,28.1,29.89,WSW,248,6.8,8.3,59,0.00,CLR,,0.00,WeatherDisplay:10.37,2013-02-26 19:02:00,
2013-02-26 12:07:00,41.7,28.4,29.89,NW,315,9.2,12.7,59,0.00,CLR,,0.00,WeatherDisplay:10.37,2013-02-26 19:07:00,
2013-02-26 12:12:00,41.5,28.2,29.89,NNW,338,6.9,8.1,59,0.00,BKN,,0.00,WeatherDisplay:10.37,2013-02-26 19:12:00,
2013-02-26 12:17:00,41.2,28.4,29.89,West,270,11.9,11.9,60,0.00,BKN,,0.00,WeatherDisplay:10.37,2013-02-26 19:17:00,
2013-02-26 12:22:00,41.2,28.8,29.89,West,270,11.9,11.9,61,0.00,BKN,,0.00,WeatherDisplay:10.37,2013-02-26 19:22:00,
2013-02-26 12:27:00,41.2,28.8,29.89,West,270,7.8,8.1,61,0.00,BKN,,0.00,WeatherDisplay:10.37,2013-02-26 19:27:00,
2013-02-26 12:32:00,41.7,28.8,29.89,NNE,22,9.3,9.4,60,0.00,BKN,,0.00,WeatherDisplay:10.37,2013-02-26 19:32:00,
2013-02-26 12:37:00,41.5,28.6,29.89,WSW,248,7.9,11.5,60,0.00,BKN,,0.00,WeatherDisplay:10.37,2013-02-26 19:37:00,
2013-02-26 12:42:00,41.0,28.2,29.90,NNW,338,6.9,10.4,60,0.00,BKN,,0.00,WeatherDisplay:10.37,2013-02-26 19:42:00,
2013-02-26 12:47:00,41.0,28.2,29.90,West,270,5.1,8.8,60,0.00,BKN,,0.00,WeatherDisplay:10.37,2013-02-26 19:47:00,
2013-02-26 12:52:00,40.8,28.4,29.90,WSW,248,7.3,7.3,61,0.00,BKN,,0.00,WeatherDisplay:10.37,2013-02-26 19:52:00,
2013-02-26 12:57:00,41.4,28.9,29.90,WSW,248,6.7,9.2,61,0.00,BKN,,0.00,WeatherDisplay:10.37,2013-02-26 19:57:00,
2013-02-26 13:02:00,41.5,29.0,29.90,WSW,248,6.3,8.3,61,0.00,BKN,,0.00,WeatherDisplay:10.37,2013-02-26 20:02:00,
2013-02-26 13:07:00,41.2,28.8,29.90,WSW,248,8.9,11.5,61,0.00,BKN,,0.00,WeatherDisplay:10.37,2013-02-26 20:07:00,
2013-02-26 13:12:00,41.5,29.4,29.90,West,270,9.6,12.4,62,0.00,BKN,,0.00,WeatherDisplay:10.37,2013-02-26 20:12:00,
2013-02-26 13:17:00,41.5,29.4,29.90,WNW,292,4.0,9.2,62,0.00,BKN,,0.00,WeatherDisplay:10.37,2013-02-26 20:17:00,
2013-02-26 13:22:00,41.4,28.9,29.90,West,270,7.7,10.4,61,0.00,OVC,,0.00,WeatherDisplay:10.37,2013-02-26 20:22:00,
2013-02-26 13:27:00,41.2,29.2,29.90,West,270,10.5,11.5,62,0.00,OVC,,0.00,WeatherDisplay:10.37,2013-02-26 20:27:00,
2013-02-26 13:33:00,41.5,29.4,29.90,West,270,9.3,11.4,62,0.00,OVC,,0.00,WeatherDisplay:10.37,2013-02-26 20:33:00,
2013-02-26 13:38:00,41.2,29.5,29.90,SSW,202,8.1,9.2,63,0.00,OVC,,0.00,WeatherDisplay:10.37,2013-02-26 20:38:00,
2013-02-26 13:43:00,41.0,29.4,29.90,WSW,248,9.8,11.5,63,0.00,OVC,,0.00,WeatherDisplay:10.37,2013-02-26 20:43:00,
2013-02-26 13:48:00,41.0,29.0,29.90,West,270,8.3,10.4,62,0.00,OVC,,0.00,WeatherDisplay:10.37,2013-02-26 20:48:00,
2013-02-26 13:53:00,41.0,29.0,29.91,West,270,8.3,8.3,62,0.00,OVC,,0.00,WeatherDisplay:10.37,2013-02-26 20:53:00,
2013-02-26 13:58:00,40.8,29.2,29.91,West,270,9.8,11.5,63,0.00,OVC,,0.00,WeatherDisplay:10.37,2013-02-26 20:58:00,
2013-02-26 14:03:00,40.6,29.4,29.91,West,270,9.4,12.7,64,0.00,OVC,,0.00,WeatherDisplay:10.37,2013-02-26 21:03:00,
2013-02-26 14:08:00,40.6,29.4,29.91,WNW,292,8.4,9.2,64,0.00,OVC,,0.00,WeatherDisplay:10.37,2013-02-26 21:08:00,
2013-02-26 14:13:00,40.5,29.7,29.91,West,270,11.2,12.7,65,0.00,OVC,,0.00,WeatherDisplay:10.37,2013-02-26 21:13:00,
2013-02-26 14:18:00,40.1,29.3,29.92,West,270,6.7,9.2,65,0.00,OVC,,0.00,WeatherDisplay:10.37,2013-02-26 21:18:00,
2013-02-26 14:23:00,39.9,29.5,29.92,West,270,5.8,5.8,66,0.00,OVC,,0.00,WeatherDisplay:10.37,2013-02-26 21:23:00,
2013-02-26 14:28:00,39.0,29.3,29.92,WSW,248,6.7,7.8,68,0.00,OVC,,0.00,WeatherDisplay:10.37,2013-02-26 21:28:00,
2013-02-26 14:33:00,38.8,29.8,29.92,WNW,292,8.9,10.9,70,0.00,OVC,,0.00,WeatherDisplay:10.37,2013-02-26 21:33:00,
2013-02-26 14:38:00,37.9,29.7,29.92,NW,315,8.4,9.2,72,0.00,OVC,,0.00,WeatherDisplay:10.37,2013-02-26 21:38:00,
2013-02-26 14:43:00,37.9,29.7,29.93,North,360,6.9,10.4,72,0.00,OVC,,0.00,WeatherDisplay:10.37,2013-02-26 21:43:00,
2013-02-26 14:48:00,36.9,29.1,29.93,West,270,10.1,16.1,73,0.00,OVC,,0.00,WeatherDisplay:10.37,2013-02-26 21:48:00,
2013-02-26 14:53:00,36.0,28.8,29.94,West,270,9.6,16.1,75,0.00,OVC,,0.00,WeatherDisplay:10.37,2013-02-26 21:53:00,
2013-02-26 14:58:00,35.4,28.6,29.94,WNW,292,12.8,16.1,76,0.00,OVC,,0.00,WeatherDisplay:10.37,2013-02-26 21:58:00,
2013-02-26 15:03:00,35.2,28.4,29.94,WNW,292,12.2,16.1,76,0.00,OVC,,0.00,WeatherDisplay:10.37,2013-02-26 22:03:00,
2013-02-26 15:08:00,34.7,28.2,29.94,West,270,11.8,16.1,77,0.00,OVC,,0.00,WeatherDisplay:10.37,2013-02-26 22:08:00,
2013-02-26 15:13:00,34.7,28.2,29.94,West,270,15.5,16.1,77,0.00,OVC,,0.00,WeatherDisplay:10.37,2013-02-26 22:13:00,
2013-02-26 15:18:00,33.3,27.5,29.94,SW,225,11.1,13.8,79,0.00,OVC,,0.00,WeatherDisplay:10.37,2013-02-26 22:18:00,
2013-02-26 15:23:00,33.1,27.3,29.94,WSW,248,11.6,15.0,79,0.00,OVC,,0.00,WeatherDisplay:10.37,2013-02-26 22:23:00,
2013-02-26 15:28:00,32.9,27.4,29.95,West,270,12.6,15.0,80,0.00,OVC,,0.00,WeatherDisplay:10.37,2013-02-26 22:28:00,
2013-02-26 15:33:00,33.1,27.6,29.95,West,270,8.7,11.5,80,0.00,OVC,,0.00,WeatherDisplay:10.37,2013-02-26 22:33:00,
2013-02-26 15:38:00,32.9,27.4,29.95,West,270,8.7,10.4,80,0.00,OVC,,0.00,WeatherDisplay:10.37,2013-02-26 22:38:00,
2013-02-26 15:43:00,32.9,27.4,29.96,West,270,10.4,13.8,80,0.00,OVC,,0.00,WeatherDisplay:10.37,2013-02-26 22:43:00,
2013-02-26 15:48:00,32.9,27.4,29.96,WNW,292,10.1,12.7,80,0.00,OVC,,0.00,WeatherDisplay:10.37,2013-02-26 22:48:00,
2013-02-26 15:53:00,32.9,27.4,29.96,WNW,292,9.9,10.4,80,0.00,BKN,,0.00,WeatherDisplay:10.37,2013-02-26 22:53:00,
2013-02-26 15:58:00,32.9,27.4,29.96,WNW,292,11.2,12.7,80,0.00,BKN,,0.00,WeatherDisplay:10.37,2013-02-26 22:58:00,
2013-02-26 16:03:00,32.9,27.4,29.96,West,270,8.5,11.9,80,0.00,BKN,,0.00,WeatherDisplay:10.37,2013-02-26 23:03:00,
2013-02-26 16:08:00,32.9,27.4,29.96,West,270,9.1,12.7,80,0.00,BKN,,0.00,WeatherDisplay:10.37,2013-02-26 23:08:00,
2013-02-26 16:13:00,32.9,27.4,29.96,West,270,9.4,10.4,80,0.00,BKN,,0.00,WeatherDisplay:10.37,2013-02-26 23:13:00,
2013-02-26 16:18:00,32.9,27.4,29.97,West,270,10.5,12.7,80,0.00,BKN,,0.00,WeatherDisplay:10.37,2013-02-26 23:18:00,
2013-02-26 16:23:00,33.1,27.6,29.97,WNW,292,9.4,9.4,80,0.00,OVC,,0.00,WeatherDisplay:10.37,2013-02-26 23:23:00,
2013-02-26 16:28:00,33.1,27.6,29.97,West,270,10.0,10.9,80,0.00,OVC,,0.00,WeatherDisplay:10.37,2013-02-26 23:28:00,
2013-02-26 16:33:00,33.1,27.6,29.97,West,270,12.0,12.0,80,0.00,OVC,,0.00,WeatherDisplay:10.37,2013-02-26 23:33:00,
2013-02-26 16:38:00,33.1,27.6,29.97,WSW,248,9.6,11.5,80,0.00,OVC,,0.00,WeatherDisplay:10.37,2013-02-26 23:38:00,
2013-02-26 16:43:00,33.1,27.6,29.97,West,270,8.7,10.4,80,0.00,OVC,,0.00,WeatherDisplay:10.37,2013-02-26 23:43:00,
2013-02-26 16:48:00,32.9,27.4,29.97,WSW,248,11.1,12.7,80,0.00,OVC,,0.00,WeatherDisplay:10.37,2013-02-26 23:48:00,
2013-02-26 16:53:00,32.9,27.1,29.98,WNW,292,10.4,16.1,79,0.00,OVC,,0.00,WeatherDisplay:10.37,2013-02-26 23:53:00,
2013-02-26 16:58:00,32.9,27.1,29.98,WSW,248,15.0,15.0,79,0.00,OVC,,0.00,WeatherDisplay:10.37,2013-02-26 23:58:00,
2013-02-26 17:03:00,32.7,26.9,29.98,SW,225,9.9,15.0,79,0.00,OVC,,0.00,WeatherDisplay:10.37,2013-02-27 00:03:00,
2013-02-26 17:08:00,32.7,26.9,29.98,WNW,292,8.4,13.8,79,0.00,OVC,,0.00,WeatherDisplay:10.37,2013-02-27 00:08:00,
2013-02-26 17:13:00,32.7,26.9,29.98,WNW,292,7.5,11.5,79,0.00,OVC,,0.00,WeatherDisplay:10.37,2013-02-27 00:13:00,
2013-02-26 17:18:00,32.7,26.9,29.99,West,270,7.3,11.5,79,0.00,OVC,,0.00,WeatherDisplay:10.37,2013-02-27 00:18:00,
2013-02-26 17:23:00,32.5,27.0,29.99,WSW,248,9.9,16.1,80,0.00,OVC,,0.00,WeatherDisplay:10.37,2013-02-27 00:23:00,
2013-02-26 17:28:00,32.4,26.9,29.99,WNW,292,13.8,14.0,80,0.00,OVC,,0.00,WeatherDisplay:10.37,2013-02-27 00:28:00,
2013-02-26 17:33:00,32.2,26.7,29.99,West,270,11.5,13.8,80,0.00,OVC,,0.00,WeatherDisplay:10.37,2013-02-27 00:33:00,
2013-02-26 17:38:00,32.2,26.4,30.00,WSW,248,6.0,10.4,79,0.00,OVC,,0.00,WeatherDisplay:10.37,2013-02-27 00:38:00,
2013-02-26 17:43:00,32.0,26.2,30.00,WNW,292,8.7,13.8,79,0.00,OVC,,0.00,WeatherDisplay:10.37,2013-02-27 00:43:00,
2013-02-26 17:48:00,32.0,26.2,30.00,WNW,292,9.1,11.5,79,0.00,OVC,,0.00,WeatherDisplay:10.37,2013-02-27 00:48:00,
2013-02-26 17:53:00,32.0,26.2,30.00,WNW,292,8.7,11.5,79,0.00,OVC,,0.00,WeatherDisplay:10.37,2013-02-27 00:53:00,
2013-02-26 17:58:00,32.0,26.2,30.00,West,270,10.1,11.5,79,0.00,OVC,,0.00,WeatherDisplay:10.37,2013-02-27 00:58:00,
2013-02-26 18:03:00,32.0,26.2,30.00,WNW,292,7.8,10.4,79,0.00,OVC,,0.00,WeatherDisplay:10.37,2013-02-27 01:03:00,
2013-02-26 18:08:00,32.0,26.2,30.00,West,270,14.0,16.1,79,0.00,OVC,,0.00,WeatherDisplay:10.37,2013-02-27 01:08:00,
2013-02-26 18:13:00,32.0,26.2,30.00,West,270,11.2,12.7,79,0.00,OVC,,0.00,WeatherDisplay:10.37,2013-02-27 01:13:00,
2013-02-26 18:18:00,32.0,26.2,30.01,West,270,10.8,12.7,79,0.00,OVC,,0.00,WeatherDisplay:10.37,2013-02-27 01:18:00,
2013-02-26 18:23:00,32.0,26.2,30.01,West,270,10.5,15.0,79,0.00,OVC,,0.00,WeatherDisplay:10.37,2013-02-27 01:23:00,
2013-02-26 18:28:00,32.0,26.2,30.01,WNW,292,8.7,12.7,79,0.00,OVC,,0.00,WeatherDisplay:10.37,2013-02-27 01:28:00,
2013-02-26 18:33:00,32.0,26.2,30.01,West,270,9.2,14.0,79,0.00,OVC,,0.00,WeatherDisplay:10.37,2013-02-27 01:33:00,
2013-02-26 18:38:00,32.0,26.2,30.01,WNW,292,6.6,9.2,79,0.00,OVC,,0.00,WeatherDisplay:10.37,2013-02-27 01:38:00,
2013-02-26 18:43:00,32.0,25.9,30.01,West,270,10.4,10.4,78,0.00,OVC,,0.00,WeatherDisplay:10.37,2013-02-27 01:43:00,
2013-02-26 18:48:00,32.0,25.9,30.01,WSW,248,5.5,6.9,78,0.00,OVC,,0.00,WeatherDisplay:10.37,2013-02-27 01:48:00,
2013-02-26 18:53:00,32.0,25.9,30.01,NW,315,9.0,10.4,78,0.00,OVC,,0.00,WeatherDisplay:10.37,2013-02-27 01:53:00,
2013-02-26 18:58:00,32.0,25.9,30.01,WNW,292,12.5,15.0,78,0.00,OVC,,0.00,WeatherDisplay:10.37,2013-02-27 01:58:00,
2013-02-26 19:03:00,31.8,25.7,30.02,WNW,292,11.4,13.8,78,0.00,OVC,,0.00,WeatherDisplay:10.37,2013-02-27 02:03:00,
2013-02-26 19:08:00,31.6,24.9,30.02,West,270,11.6,16.1,76,0.00,OVC,,0.00,WeatherDisplay:10.37,2013-02-27 02:08:00,
2013-02-26 19:13:00,31.6,24.9,30.02,West,270,14.5,18.4,76,0.00,OVC,,0.00,WeatherDisplay:10.37,2013-02-27 02:13:00,
2013-02-26 19:19:00,31.6,25.2,30.02,NNE,22,9.1,13.8,77,0.00,OVC,,0.00,WeatherDisplay:10.37,2013-02-27 02:19:00,
2013-02-26 19:24:00,31.6,25.2,30.02,WNW,292,8.4,11.5,77,0.00,OVC,,0.00,WeatherDisplay:10.37,2013-02-27 02:24:00,
2013-02-26 19:29:00,31.6,25.5,30.02,WSW,248,7.8,10.9,78,0.00,OVC,,0.00,WeatherDisplay:10.37,2013-02-27 02:29:00,
2013-02-26 19:34:00,31.6,25.5,30.02,WSW,248,10.5,12.7,78,0.00,OVC,,0.00,WeatherDisplay:10.37,2013-02-27 02:34:00,
2013-02-26 19:39:00,31.6,25.5,30.03,SW,225,6.1,8.3,78,0.00,OVC,,0.00,WeatherDisplay:10.37,2013-02-27 02:39:00,
2013-02-26 19:44:00,31.6,25.5,30.03,WNW,292,9.9,10.4,78,0.00,OVC,,0.00,WeatherDisplay:10.37,2013-02-27 02:44:00,
2013-02-26 19:49:00,31.6,25.5,30.03,NW,315,9.4,10.4,78,0.00,OVC,,0.00,WeatherDisplay:10.37,2013-02-27 02:49:00,
2013-02-26 19:54:00,31.6,25.8,30.03,West,270,7.4,10.4,79,0.00,OVC,,0.00,WeatherDisplay:10.37,2013-02-27 02:54:00,
2013-02-26 19:59:00,31.6,25.8,30.03,SE,135,4.9,5.8,79,0.00,OVC,,0.00,WeatherDisplay:10.37,2013-02-27 02:59:00,
2013-02-26 20:04:00,31.6,25.5,30.03,West,270,10.2,16.1,78,0.00,OVC,,0.00,WeatherDisplay:10.37,2013-02-27 03:04:00,
2013-02-26 20:09:00,31.6,25.2,30.03,West,270,7.7,8.1,77,0.00,OVC,,0.00,WeatherDisplay:10.37,2013-02-27 03:09:00,
2013-02-26 20:14:00,31.5,25.4,30.04,West,270,6.2,9.2,78,0.00,OVC,,0.00,WeatherDisplay:10.37,2013-02-27 03:14:00,
2013-02-26 20:19:00,31.5,25.7,30.04,West,270,5.9,8.1,79,0.00,OVC,,0.00,WeatherDisplay:10.37,2013-02-27 03:19:00,
2013-02-26 20:24:00,31.5,25.7,30.04,West,270,6.7,8.1,79,0.00,OVC,,0.00,WeatherDisplay:10.37,2013-02-27 03:24:00,
2013-02-26 20:29:00,31.3,25.5,30.04,WNW,292,10.9,11.5,79,0.00,OVC,,0.00,WeatherDisplay:10.37,2013-02-27 03:29:00,
2013-02-26 20:34:00,31.3,25.5,30.04,West,270,7.9,10.9,79,0.00,OVC,,0.00,WeatherDisplay:10.37,2013-02-27 03:34:00,
2013-02-26 20:39:00,31.3,25.8,30.04,WNW,292,6.7,6.9,80,0.00,OVC,,0.00,WeatherDisplay:10.37,2013-02-27 03:39:00,
2013-02-26 20:44:00,31.3,25.8,30.04,West,270,4.9,5.8,80,0.00,OVC,,0.00,WeatherDisplay:10.37,2013-02-27 03:44:00,
2013-02-26 20:49:00,31.1,25.7,30.04,NE,45,8.6,10.4,80,0.00,OVC,,0.00,WeatherDisplay:10.37,2013-02-27 03:49:00,
2013-02-26 20:54:00,31.1,25.7,30.04,West,270,4.2,4.7,80,0.00,OVC,,0.00,WeatherDisplay:10.37,2013-02-27 03:54:00,
2013-02-26 20:59:00,30.9,25.5,30.04,WNW,292,7.5,9.2,80,0.00,OVC,,0.00,WeatherDisplay:10.37,2013-02-27 03:59:00,
2013-02-26 21:04:00,30.9,25.5,30.04,WNW,292,8.0,10.4,80,0.00,OVC,,0.00,WeatherDisplay:10.37,2013-02-27 04:04:00,
2013-02-26 21:09:00,30.7,25.3,30.04,West,270,7.8,9.2,80,0.00,OVC,,0.00,WeatherDisplay:10.37,2013-02-27 04:09:00,
2013-02-26 21:14:00,30.7,25.3,30.04,WNW,292,5.7,9.4,80,0.00,OVC,,0.00,WeatherDisplay:10.37,2013-02-27 04:14:00,
2013-02-26 21:19:00,30.7,25.6,30.04,NW,315,6.8,10.9,81,0.00,OVC,,0.00,WeatherDisplay:10.37,2013-02-27 04:19:00,
2013-02-26 21:24:00,30.7,25.6,30.04,WNW,292,4.4,6.9,81,0.00,OVC,,0.00,WeatherDisplay:10.37,2013-02-27 04:24:00,
2013-02-26 21:30:00,30.7,25.6,30.05,WNW,292,5.4,6.9,81,0.00,OVC,,0.00,WeatherDisplay:10.37,2013-02-27 04:30:00,
2013-02-26 21:35:00,30.7,25.6,30.05,WNW,292,7.8,9.9,81,0.00,OVC,,0.00,WeatherDisplay:10.37,2013-02-27 04:35:00,
2013-02-26 21:40:00,30.7,25.6,30.05,WSW,248,6.4,6.9,81,0.00,OVC,,0.00,WeatherDisplay:10.37,2013-02-27 04:40:00,
2013-02-26 21:45:00,30.7,25.6,30.05,West,270,6.9,10.4,81,0.00,OVC,,0.00,WeatherDisplay:10.37,2013-02-27 04:45:00,
2013-02-26 21:50:00,30.7,25.9,30.05,NNW,338,3.6,4.6,82,0.00,OVC,,0.00,WeatherDisplay:10.37,2013-02-27 04:50:00,
2013-02-26 21:55:00,30.7,25.6,30.05,West,270,7.7,9.2,81,0.00,OVC,,0.00,WeatherDisplay:10.37,2013-02-27 04:55:00,
2013-02-26 22:00:00,30.7,25.6,30.05,West,270,4.0,6.9,81,0.00,OVC,,0.00,WeatherDisplay:10.37,2013-02-27 05:00:00,
2013-02-26 22:06:00,30.6,25.5,30.05,WNW,292,7.6,10.9,81,0.00,OVC,,0.00,WeatherDisplay:10.37,2013-02-27 05:06:00,
2013-02-26 22:11:00,30.4,25.3,30.05,NW,315,11.2,12.7,81,0.00,OVC,,0.00,WeatherDisplay:10.37,2013-02-27 05:11:00,
2013-02-26 22:16:00,30.4,25.3,30.05,NNW,338,5.9,7.3,81,0.00,OVC,,0.00,WeatherDisplay:10.37,2013-02-27 05:16:00,
2013-02-26 22:21:00,30.4,25.3,30.05,WSW,248,8.0,9.4,81,0.00,OVC,,0.00,WeatherDisplay:10.37,2013-02-27 05:21:00,
2013-02-26 22:26:00,30.4,25.3,30.05,WNW,292,4.4,5.8,81,0.00,OVC,,0.00,WeatherDisplay:10.37,2013-02-27 05:26:00,
2013-02-26 22:31:00,30.4,25.3,30.06,WNW,292,5.9,6.9,81,0.00,OVC,,0.00,WeatherDisplay:10.37,2013-02-27 05:31:00,
2013-02-26 22:36:00,30.4,25.3,30.06,West,270,8.5,10.9,81,0.00,OVC,,0.00,WeatherDisplay:10.37,2013-02-27 05:36:00,
2013-02-26 22:41:00,30.4,25.3,30.05,NW,315,5.3,5.8,81,0.00,OVC,,0.00,WeatherDisplay:10.37,2013-02-27 05:41:00,
2013-02-26 22:46:00,30.4,25.3,30.05,South,180,5.8,6.3,81,0.00,OVC,,0.00,WeatherDisplay:10.37,2013-02-27 05:46:00,
2013-02-26 22:51:00,30.4,25.0,30.06,West,270,11.3,12.7,80,0.00,OVC,,0.00,WeatherDisplay:10.37,2013-02-27 05:51:00,
2013-02-26 22:56:00,30.4,25.0,30.06,WSW,248,8.8,9.2,80,0.00,OVC,,0.00,WeatherDisplay:10.37,2013-02-27 05:56:00,
2013-02-26 23:01:00,30.4,24.7,30.06,WSW,248,11.0,12.4,79,0.00,OVC,,0.00,WeatherDisplay:10.37,2013-02-27 06:01:00,
2013-02-26 23:06:00,30.4,24.7,30.05,West,270,7.7,9.2,79,0.00,OVC,,0.00,WeatherDisplay:10.37,2013-02-27 06:06:00,
2013-02-26 23:11:00,30.4,24.7,30.05,West,270,9.0,12.7,79,0.00,OVC,,0.00,WeatherDisplay:10.37,2013-02-27 06:11:00,
2013-02-26 23:16:00,30.4,24.7,30.05,WSW,248,9.3,10.4,79,0.00,OVC,,0.00,WeatherDisplay:10.37,2013-02-27 06:16:00,
2013-02-26 23:21:00,30.4,24.7,30.05,WSW,248,10.4,10.4,79,0.00,OVC,,0.00,WeatherDisplay:10.37,2013-02-27 06:21:00,
2013-02-26 23:26:00,30.2,24.5,30.05,WSW,248,10.0,12.7,79,0.00,OVC,,0.00,WeatherDisplay:10.37,2013-02-27 06:26:00,
2013-02-26 23:31:00,30.2,24.5,30.06,West,270,6.9,8.3,79,0.00,OVC,,0.00,WeatherDisplay:10.37,2013-02-27 06:31:00,
2013-02-26 23:36:00,30.2,24.8,30.06,WNW,292,7.1,8.8,80,0.00,OVC,,0.00,WeatherDisplay:10.37,2013-02-27 06:36:00,
2013-02-26 23:41:00,30.0,24.6,30.06,WSW,248,7.6,10.4,80,0.00,OVC,,0.00,WeatherDisplay:10.37,2013-02-27 06:41:00,
2013-02-26 23:46:00,30.0,24.3,30.06,WNW,292,9.1,10.9,79,0.00,OVC,,0.00,WeatherDisplay:10.37,2013-02-27 06:46:00,
2013-02-26 23:51:00,30.0,24.3,30.06,West,270,11.3,13.8,79,0.00,OVC,,0.00,WeatherDisplay:10.37,2013-02-27 06:51:00,
2013-02-26 23:56:00,30.0,24.3,30.06,West,270,9.0,12.7,79,0.00,OVC,,0.00,WeatherDisplay:10.37,2013-02-27 06:56:00,